• Em Portugal
  • Lista de países
  • Para 7 dias
  • Temperatura da água
  • Mapas de satélite
  • Mapa do tempo
  • Widgets de tempo
  • user-avatar
    Iniciar Sessão

    Previsão horária em Artashat

    Hoje, 16 Dezembro, Sábado

    Tempo Temperatura Precipitação Vento Pressão Humidade
    00:00 -2°C° 0 mm 1 m/s 601 mmHg 43%
    01:00 -2°C° 0 mm 1 m/s 601 mmHg 43%
    02:00 -2°C° 0 mm 1 m/s 601 mmHg 43%
    03:00 -4°C° 0 mm 2 m/s 600 mmHg 42%
    04:00 -5°C° 0 mm 2 m/s 600 mmHg 43%
    05:00 -3°C° 0 mm 1 m/s 601 mmHg 43%
    06:00 -3°C° 0 mm 1 m/s 601 mmHg 43%
    07:00 -2°C° 0 mm 1 m/s 601 mmHg 41%
    08:00 -1°C° 0 mm 1 m/s 602 mmHg 40%
    09:00 +1°C° 0 mm 1 m/s 603 mmHg 38%
    10:00 +2°C° 0 mm 1 m/s 603 mmHg 38%
    11:00 +3°C° 0 mm 1 m/s 603 mmHg 37%
    12:00 +4°C° 0 mm 1 m/s 603 mmHg 36%
    13:00 +4°C° 0 mm 1 m/s 603 mmHg 37%
    14:00 +4°C° 0 mm 1 m/s 603 mmHg 37%
    15:00 +4°C° 0 mm 1 m/s 603 mmHg 38%
    16:00 +3°C° 0 mm 1 m/s 603 mmHg 40%
    17:00 +1°C° 0 mm 1 m/s 602 mmHg 42%
    18:00 0°C° 0 mm 1 m/s 602 mmHg 44%
    19:00 -1°C° 0 mm 1 m/s 602 mmHg 44%
    20:00 -1°C° 0 mm 1 m/s 602 mmHg 44%
    21:00 -1°C° 0 mm 1 m/s 602 mmHg 43%
    22:00 -1°C° 0 mm 1 m/s 602 mmHg 43%
    23:00 -1°C° 0 mm 1 m/s 602 mmHg 43%

    Amanhã, 17 Dezembro, Domingo

    Tempo Temperatura Precipitação Vento Pressão Humidade
    00:00 -1°C° 0 mm 1 m/s 602 mmHg 42%
    01:00 -1°C° 0 mm 1 m/s 602 mmHg 42%
    02:00 -2°C° 0 mm 1 m/s 602 mmHg 42%
    03:00 -2°C° 0 mm 1 m/s 602 mmHg 42%
    04:00 -2°C° 0 mm 1 m/s 602 mmHg 42%
    05:00 -2°C° 0 mm 1 m/s 602 mmHg 43%
    06:00 -2°C° 0 mm 1 m/s 602 mmHg 43%
    07:00 -2°C° 0 mm 1 m/s 602 mmHg 42%
    08:00 -1°C° 0 mm 1 m/s 603 mmHg 40%
    09:00 0°C° 0 mm 1 m/s 603 mmHg 39%
    10:00 +2°C° 0 mm 1 m/s 603 mmHg 38%
    11:00 +3°C° 0 mm 1 m/s 604 mmHg 36%
    12:00 +4°C° 0 mm 1 m/s 604 mmHg 35%
    13:00 +4°C° 0 mm 1 m/s 603 mmHg 36%
    14:00 +4°C° 0 mm 1 m/s 603 mmHg 38%
    15:00 +4°C° 0 mm 1 m/s 603 mmHg 40%
    16:00 +2°C° 0 mm 1 m/s 602 mmHg 41%
    17:00 +1°C° 0 mm 1 m/s 602 mmHg 43%
    18:00 -1°C° 0 mm 1 m/s 602 mmHg 45%
    19:00 -1°C° 0 mm 1 m/s 602 mmHg 45%
    20:00 -1°C° 0 mm 1 m/s 602 mmHg 45%
    21:00 -1°C° 0 mm 1 m/s 602 mmHg 45%
    22:00 -2°C° 0 mm 1 m/s 602 mmHg 45%
    23:00 -2°C° 0 mm 1 m/s 602 mmHg 45%

    Depois de amanhã, 18 Dezembro, Segunda-feira

    Tempo Temperatura Precipitação Vento Pressão Humidade
    00:00 -2°C° 0 mm 1 m/s 602 mmHg 46%
    01:00 -2°C° 0 mm 1 m/s 602 mmHg 46%
    02:00 -2°C° 0 mm 1 m/s 602 mmHg 47%
    03:00 -2°C° 0 mm 1 m/s 602 mmHg 48%
    04:00 -3°C° 0 mm 1 m/s 602 mmHg 49%
    05:00 -5°C° 0 mm 2 m/s 601 mmHg 51%
    06:00 -5°C° 0 mm 2 m/s 601 mmHg 52%
    07:00 -4°C° 0 mm 2 m/s 602 mmHg 51%
    08:00 -3°C° 0 mm 2 m/s 603 mmHg 51%
    09:00 0°C° 0 mm 1 m/s 603 mmHg 50%
    10:00 +1°C° 0 mm 1 m/s 603 mmHg 49%
    11:00 +2°C° 0 mm 1 m/s 603 mmHg 48%
    12:00 +4°C° 0 mm 1 m/s 603 mmHg 46%
    13:00 +4°C° 0 mm 1 m/s 603 mmHg 48%
    14:00 +4°C° 0 mm 1 m/s 603 mmHg 49%
    15:00 +4°C° 0 mm 1 m/s 603 mmHg 51%
    16:00 +2°C° 0 mm 2 m/s 602 mmHg 54%
    17:00 -1°C° 0 mm 2 m/s 602 mmHg 57%
    18:00 -2°C° 0 mm 2 m/s 602 mmHg 60%
    19:00 -2°C° 0 mm 2 m/s 602 mmHg 61%
    20:00 -3°C° 0 mm 2 m/s 602 mmHg 62%
    21:00 -3°C° 0 mm 2 m/s 602 mmHg 63%
    22:00 -3°C° 0 mm 2 m/s 602 mmHg 64%
    23:00 -3°C° 0 mm 2 m/s 602 mmHg 65%

    19 Dezembro, Terça-feira

    Tempo Temperatura Precipitação Vento Pressão Humidade
    00:00 -3°C° 0 mm 2 m/s 602 mmHg 65%
    01:00 -3°C° 0 mm 2 m/s 602 mmHg 66%
    02:00 -4°C° 0 mm 2 m/s 602 mmHg 67%
    03:00 -4°C° 0 mm 2 m/s 602 mmHg 68%
    04:00 -4°C° 0 mm 2 m/s 602 mmHg 68%
    05:00 -4°C° 0 mm 2 m/s 602 mmHg 68%
    06:00 -4°C° 0 mm 2 m/s 602 mmHg 69%
    07:00 -3°C° 0 mm 2 m/s 602 mmHg 66%
    08:00 -2°C° 0 mm 2 m/s 603 mmHg 63%
    09:00 -1°C° 0 mm 2 m/s 603 mmHg 60%
    10:00 +1°C° 0 mm 2 m/s 603 mmHg 57%
    11:00 +2°C° 0 mm 2 m/s 603 mmHg 54%
    12:00 +4°C° 0 mm 2 m/s 604 mmHg 50%
    13:00 +4°C° 0 mm 2 m/s 603 mmHg 51%
    14:00 +4°C° 0 mm 2 m/s 603 mmHg 51%
    15:00 +4°C° 0 mm 2 m/s 603 mmHg 51%
    16:00 +3°C° 0 mm 2 m/s 603 mmHg 54%
    17:00 +1°C° 0 mm 2 m/s 603 mmHg 57%
    18:00 -1°C° 0 mm 2 m/s 602 mmHg 60%
    19:00 -1°C° 0 mm 2 m/s 602 mmHg 61%
    20:00 -2°C° 0 mm 2 m/s 602 mmHg 61%
    21:00 -2°C° 0 mm 2 m/s 602 mmHg 61%
    22:00 -2°C° 0 mm 2 m/s 602 mmHg 62%
    23:00 -2°C° 0 mm 2 m/s 602 mmHg 63%

    20 Dezembro, Quarta-feira

    Tempo Temperatura Precipitação Vento Pressão Humidade
    00:00 -2°C° 0 mm 2 m/s 602 mmHg 64%
    01:00 -2°C° 0 mm 2 m/s 602 mmHg 65%
    02:00 -2°C° 0 mm 2 m/s 602 mmHg 67%
    03:00 -2°C° 0 mm 2 m/s 602 mmHg 68%
    04:00 -2°C° 0 mm 2 m/s 602 mmHg 69%
    05:00 -2°C° 0 mm 2 m/s 602 mmHg 70%
    06:00 -2°C° 0 mm 2 m/s 602 mmHg 71%
    07:00 -2°C° 0,1 mm 2 m/s 602 mmHg 69%
    08:00 -1°C° 0,1 mm 2 m/s 603 mmHg 68%
    09:00 +1°C° 0,1 mm 2 m/s 603 mmHg 67%
    10:00 +2°C° 0,1 mm 2 m/s 603 mmHg 65%
    11:00 +2°C° 0,1 mm 2 m/s 603 mmHg 64%
    12:00 +3°C° 0,1 mm 2 m/s 603 mmHg 63%
    13:00 +3°C° 0,3 mm 2 m/s 602 mmHg 65%
    14:00 +3°C° 0,3 mm 2 m/s 602 mmHg 67%
    15:00 +2°C° 0,3 mm 3 m/s 602 mmHg 69%
    16:00 +2°C° 0,1 mm 2 m/s 602 mmHg 70%
    17:00 +2°C° 0,1 mm 2 m/s 601 mmHg 72%
    18:00 +1°C° 0,1 mm 2 m/s 601 mmHg 74%
    19:00 +1°C° 0,2 mm 2 m/s 601 mmHg 74%
    20:00 +1°C° 0,2 mm 2 m/s 601 mmHg 75%
    21:00 +1°C° 0,2 mm 2 m/s 601 mmHg 75%
    22:00 +1°C° 0,1 mm 2 m/s 601 mmHg 76%
    23:00 +1°C° 0,1 mm 2 m/s 601 mmHg 76%

    21 Dezembro, Quinta-feira

    Tempo Temperatura Precipitação Vento Pressão Humidade
    00:00 +1°C° 0,1 mm 2 m/s 601 mmHg 77%
    01:00 +1°C° 0,2 mm 2 m/s 601 mmHg 78%
    02:00 -1°C° 0,2 mm 2 m/s 600 mmHg 78%
    03:00 -1°C° 0,2 mm 2 m/s 600 mmHg 79%
    04:00 -1°C° 0,1 mm 2 m/s 600 mmHg 79%
    05:00 -1°C° 0,1 mm 2 m/s 600 mmHg 79%
    06:00 -1°C° 0,1 mm 2 m/s 599 mmHg 78%
    07:00 -1°C° 0,1 mm 2 m/s 599 mmHg 77%
    08:00 +1°C° 0,1 mm 2 m/s 599 mmHg 75%
    09:00 +1°C° 0,1 mm 2 m/s 599 mmHg 73%
    10:00 +2°C° 0,2 mm 2 m/s 599 mmHg 72%
    11:00 +2°C° 0,2 mm 3 m/s 599 mmHg 70%
    12:00 +3°C° 0,2 mm 3 m/s 598 mmHg 69%
    13:00 +3°C° 0,2 mm 3 m/s 598 mmHg 70%
    14:00 +3°C° 0,2 mm 3 m/s 597 mmHg 71%
    15:00 +3°C° 0,2 mm 3 m/s 596 mmHg 72%
    16:00 +2°C° 0,2 mm 3 m/s 596 mmHg 74%
    17:00 +2°C° 0,2 mm 3 m/s 595 mmHg 77%
    18:00 +1°C° 0,2 mm 3 m/s 595 mmHg 79%
    19:00 +2°C° 0,1 mm 2 m/s 595 mmHg 77%
    20:00 +2°C° 0,1 mm 2 m/s 594 mmHg 76%
    21:00 +1°C° 0,1 mm 2 m/s 594 mmHg 74%
    22:00 +1°C° 0,1 mm 2 m/s 593 mmHg 74%
    23:00 0°C° 0,1 mm 3 m/s 593 mmHg 73%
    Mostrar mais